Flag for Israel Weather past 2 weeks in Bnei Brak, Israel

Now
70 °F

Passing clouds.


Feels Like: 70 °F
Forecast: 60 / 76 °F
Wind: 9 mph from Northwest

Location: Dov Airport


UV Index: 7 (High)

Visibility: N/A


Pressure: 29.98 "Hg

Humidity: 60%

Dew point: 55 °F

Location of Bnei BrakLocation

Historic Weather in Bnei Brak

°F

Bnei Brak temperature yesterday

Maximum temperature yesterday: 73 °F (at 8:50 AM)
Minimum temperature yesterday: 68 °F (at 7:50 AM)
Average temperature yesterday: 70 °F

Past Weeks' High & Low Weather Summary

 TemperatureHumidityPressure
High88 °F (Apr 19, 7:50 PM)88% (Apr 8, 5:50 AM)30.07 "Hg (Apr 8, 5:50 AM)
Low57 °F (Apr 11, 5:00 AM)19% (Apr 7, 9:50 AM)29.80 "Hg (Apr 7, 5:50 AM)
Average70 °F65%29.92 "Hg
* Reported Apr 6 11:50 AM — Apr 21 11:50 AM, Bnei Brak, Weather by CustomWeather, © 2014

Note: Actual official high and low records may vary slightly from our data, if they occured in-between our weather recording intervals... More about our weather records

Advertising

Historic Weather Conditions — Data for Previous 24 hours

 ConditionsComfort  
Time TempWeatherWind HumidityBarometerVisibility
11:50 AM
Apr 21
70 °FPassing clouds.9 mph60%29.98 "HgN/A
10:50 AM70 °FPassing clouds.8 mph60%29.98 "HgN/A
9:50 AM68 °FScattered clouds.6 mph64%29.98 "HgN/A
8:50 AM68 °FScattered clouds.5 mph69%29.98 "HgN/A
7:50 AM66 °FScattered clouds.3 mph73%29.98 "HgN/A
6:50 AM64 °FPassing clouds.2 mph78%29.95 "HgN/A
5:50 AM64 °FPassing clouds.2 mph78%29.95 "HgN/A
4:50 AM64 °FPassing clouds.5 mph78%29.92 "HgN/A
4:00 AM64 °FPassing clouds.9 mph83%29.95 "HgN/A
9:50 PM
Apr 20
68 °FPassing clouds.5 mph83%29.92 "HgN/A
8:50 PM68 °FPassing clouds.9 mph83%29.92 "Hg6 mi
7:50 PM68 °FPartly sunny.14 mph83%29.89 "Hg6 mi
6:50 PM68 °FPartly sunny.12 mph88%29.89 "Hg5 mi
5:50 PM70 °FScattered clouds.13 mph78%29.89 "HgN/A
4:50 PM72 °FScattered clouds.15 mph78%29.89 "HgN/A
3:50 PM72 °FPassing clouds.16 mph78%29.86 "HgN/A
2:50 PM73 °FSunny.16 mph74%29.89 "Hg10 mi
1:50 PM73 °FSunny.15 mph74%29.89 "Hg10 mi
Weather by CustomWeather, © 2014

See weather overview